This is the latest recevied weather packets stored in our database for station/object DO3MHA-13. If no packets are shown the sender has not sent any weather packets the latest 1 day(s).
| Time | Temp. | Humidity | Pressure | Rain* | Wind** | Luminosity | Snow |
|---|---|---|---|---|---|---|---|
| 1778048124 | - | - | 998.3 hPa | 0 mm | 0.89 m/s, 135° | - | - |
| 1778048104 | - | - | 998.3 hPa | 0 mm | 0.45 m/s, 135° | - | - |
| 1778048094 | - | - | 998.3 hPa | 0 mm | 0.45 m/s, 90° | - | - |
| 1778048084 | - | - | 764.1 hPa | 0 mm | 0.45 m/s, 90° | - | - |
| 1778048074 | - | - | 998.3 hPa | 0 mm | 0 m/s | - | - |
| 1778048064 | - | - | 998.4 hPa | 0 mm | 0 m/s | - | - |
| 1778048055 | - | - | 998.3 hPa | 0 mm | 0 m/s | - | - |
| 1778048035 | - | - | 998.3 hPa | 0 mm | 0.45 m/s, 135° | - | - |
| 1778048025 | - | - | 998.4 hPa | 0 mm | 0.45 m/s, 135° | - | - |
| 1778048015 | - | - | 998.4 hPa | 0 mm | 0.45 m/s, 90° | - | - |
| 1778047985 | - | - | 998.4 hPa | 0 mm | 0.45 m/s, 135° | - | - |
| 1778047975 | - | - | 998.4 hPa | 0 mm | 0.45 m/s, 180° | - | - |
| 1778047945 | - | - | 821.6 hPa | 0 mm | 0.89 m/s, 135° | - | - |
| 1778047935 | - | - | 998.4 hPa | 0 mm | 0.89 m/s, 135° | - | - |
| 1778047915 | - | - | 998.5 hPa | 0 mm | 0.89 m/s, 158° | - | - |
| 1778047895 | - | - | 998.4 hPa | 0 mm | 0.89 m/s, 135° | - | - |
| 1778047875 | - | - | 998.4 hPa | 0 mm | 0.89 m/s, 180° | - | - |
| 1778047865 | - | - | 998.4 hPa | 0 mm | 0.89 m/s, 158° | - | - |
| 1778047855 | - | - | 998.5 hPa | 0 mm | 0.89 m/s, 158° | - | - |
| 1778047845 | - | - | 998.5 hPa | 0 mm | 0.89 m/s, 135° | - | - |
| 1778047825 | - | - | 998.5 hPa | 0 mm | 0.89 m/s, 180° | - | - |
| 1778047805 | - | - | 998.4 hPa | 0 mm | 0.89 m/s, 180° | - | - |
| 1778047765 | - | - | 998.4 hPa | 0 mm | 0.89 m/s, 180° | - | - |
| 1778047755 | - | - | 998.4 hPa | 0 mm | 0.89 m/s, 180° | - | - |
| 1778047735 | - | - | 998.4 hPa | 0 mm | 0.45 m/s, 135° | - | - |
* Rain latest hour (hover to see other rain measurements)
** Current wind speed in m/s (hover to see current wind gust speed)